DateTimeUTC,F1_A11,F1_S11,BsB_S11,BsG_S11,BsR_S11,BbsB_S11,BbsG_S11,BbsR_S11,BaB_A11,BaG_A11,BaR_A11,Tu_S11,T_S11,Uu_S11,U_S11,P_S11,T1_A11
2021-11-26T10:00:00Z,00000200,21000000,,,,,,,0000.19,-000.24,0000.22,19.0,25.9,,00.0,0644.2,30.9
2021-11-26T10:01:00Z,00000200,21000000,,,,,,,0000.08,0000.10,-000.04,19.0,25.9,,00.0,0644.2,30.9
2021-11-26T10:02:00Z,00000200,21000000,,,,,,,-000.04,0000.04,-000.22,19.0,25.9,,00.0,0644.2,30.9
2021-11-26T10:03:00Z,00000200,61000000,,,,,,,-000.21,0000.09,0000.30,19.1,25.9,,00.0,0644.2,30.9
2021-11-26T10:04:00Z,00000200,41000000,-000.55,-000.01,0000.02,0000.37,-000.03,0000.21,0000.18,-000.18,-000.06,19.4,25.9,,00.0,0644.9,30.9
2021-11-26T10:05:00Z,00000200,01000000,-000.43,0000.31,-000.29,-000.41,0000.18,0000.06,-000.15,0000.29,-000.04,19.4,25.9,,00.0,0645.0,30.9
2021-11-26T10:06:00Z,00000200,01000000,-000.31,0000.37,0000.22,-000.56,0000.19,0000.06,0000.12,-000.22,0000.24,19.3,25.8,,00.0,0644.9,30.9
2021-11-26T10:07:00Z,00000200,01000000,-000.37,0000.43,0000.14,0000.50,-000.16,0000.09,0000.34,0000.28,-000.30,19.2,25.8,,00.0,0644.9,30.9
2021-11-26T10:08:00Z,00000200,01000000,-000.32,0000.30,0000.11,0000.32,0000.37,0000.41,-000.09,0000.01,0000.28,19.1,25.7,,00.0,0644.9,30.8
2021-11-26T10:09:00Z,00000200,01000000,-000.04,0000.05,0000.37,0000.06,0000.27,0000.65,0000.04,-000.02,-000.09,19.1,25.7,,00.0,0644.9,30.8
2021-11-26T10:10:00Z,00000200,01000000,0000.03,0000.28,0000.29,0000.40,-000.10,0000.26,0000.03,0000.33,0000.36,19.0,25.6,,00.0,0644.9,30.8
2021-11-26T10:11:00Z,00000200,01000000,0000.13,0000.46,0000.07,0000.20,0000.09,0000.25,0000.16,-000.28,-000.42,19.0,25.6,,00.0,0644.9,30.8
2021-11-26T10:12:00Z,00000200,01000000,0000.35,0000.44,0000.06,-000.41,0000.18,0000.09,0000.27,0000.67,0000.65,19.0,25.6,,00.0,0644.9,30.8
2021-11-26T10:13:00Z,00000200,01000000,-000.78,0000.34,0000.08,-000.03,-000.07,-000.08,0000.11,-000.27,-000.24,19.0,25.6,,00.0,0644.9,30.8
2021-11-26T10:14:00Z,00000200,01000000,0000.26,0000.35,-000.08,-000.84,-000.05,-000.19,0000.52,0000.40,0000.15,19.0,25.6,,00.0,0644.8,30.8
2021-11-26T10:15:00Z,00000200,01000000,0000.27,0000.36,-000.02,0000.62,-000.11,0000.09,-000.51,0000.10,0000.29,19.0,25.6,,00.0,0644.8,30.8
2021-11-26T10:16:00Z,00000200,01000000,-000.15,0000.53,0000.12,-000.26,0000.26,0000.01,0000.57,0000.31,-000.15,19.1,25.6,,00.0,0644.8,30.9
2021-11-26T10:17:00Z,00000200,01000000,0000.44,0000.32,0000.21,0000.24,0000.08,-000.09,-000.07,-000.21,0000.32,19.1,25.6,,00.0,0644.8,30.8
2021-11-26T10:18:00Z,00000200,01000000,0000.31,0000.53,-000.15,-000.00,-000.04,-000.02,0000.16,0000.35,-000.05,19.2,25.6,,00.0,0644.8,30.9
2021-11-26T10:19:00Z,00000200,01000000,0000.42,0000.08,0000.23,-000.41,0000.37,0000.21,-000.09,-000.02,-000.03,19.2,25.7,,00.0,0644.8,30.9
2021-11-26T10:20:00Z,00000200,01000000,0000.13,0000.42,0000.23,0000.01,0000.06,0000.10,0000.26,0000.29,0000.40,19.3,25.7,,00.0,0644.8,30.9
2021-11-26T10:21:00Z,00000200,01000000,0000.05,0000.19,0000.04,-000.14,0000.21,-000.26,0000.13,0000.02,-000.10,19.3,25.7,,00.0,0644.8,30.9
2021-11-26T10:22:00Z,00000200,01000000,0000.66,0000.32,0000.17,-000.02,0000.24,0000.13,-000.03,-000.04,0000.27,19.4,25.7,,00.0,0644.8,30.9
2021-11-26T10:23:00Z,00000200,01000000,0000.16,-000.00,-000.24,-000.02,0000.04,-000.27,0000.04,-000.04,-000.29,19.4,25.7,,00.0,0644.8,30.9
2021-11-26T10:24:00Z,00000200,01000000,0000.10,0000.64,-000.37,-000.20,-000.14,0000.21,-000.10,-000.15,-000.11,19.4,25.8,,00.0,0644.8,30.9
2021-11-26T10:25:00Z,00000200,01000000,0000.54,0000.00,-000.24,0000.45,0000.26,0000.02,0000.22,0000.23,-000.08,19.3,25.7,,00.0,0644.8,30.9
2021-11-26T10:26:00Z,00000200,01000000,0000.16,0000.29,0000.09,-000.14,-000.20,-000.20,0000.40,0000.39,0000.21,19.3,25.7,,00.0,0644.8,30.9
2021-11-26T10:27:00Z,00000200,01000000,0000.08,0000.59,-000.08,0000.45,0000.20,0000.08,0000.02,0000.01,0000.18,19.3,25.7,,00.0,0644.8,30.9
2021-11-26T10:28:00Z,00000200,01000000,0000.49,0000.06,-000.02,-000.73,-000.14,0000.31,0000.12,-000.00,0000.16,19.3,25.7,,00.0,0644.8,30.9
2021-11-26T10:29:00Z,00000200,01000000,0000.83,0000.37,0000.32,-000.10,0000.11,0000.01,0000.03,0000.03,0000.07,19.3,25.7,,00.0,0644.7,30.9
2021-11-26T10:30:00Z,00000200,01000000,0000.14,0000.29,-000.05,0000.21,0000.43,0000.15,0000.12,0000.36,0000.30,19.4,25.7,,00.0,0644.7,30.9
2021-11-26T10:31:00Z,00000200,01000000,-000.47,0000.37,0000.06,-000.55,0000.23,0000.19,0000.38,-000.21,-000.05,19.4,25.7,,00.0,0644.7,30.9
2021-11-26T10:32:00Z,00000200,01000000,0000.91,0000.04,0000.30,-000.27,0000.12,0000.18,-000.05,0000.60,0000.44,19.5,25.8,,00.0,0644.7,30.9
2021-11-26T10:33:00Z,00000200,01000000,0000.38,0000.11,-000.18,0000.03,-000.15,0000.40,0000.11,-000.41,-000.32,19.5,25.8,,00.0,0644.7,30.9
2021-11-26T10:34:00Z,00000200,01000000,0000.01,0000.01,0000.02,-000.37,-000.01,0000.17,-000.02,-000.21,-000.01,19.6,25.8,,00.0,0644.7,30.9
2021-11-26T10:35:00Z,00000200,01000000,0000.15,-000.14,0000.22,-000.33,-000.07,0000.25,0000.03,0000.22,0000.08,19.5,25.8,,00.0,0644.7,30.9
2021-11-26T10:36:00Z,00000200,01000000,0000.33,0000.29,0000.22,0000.33,0000.25,0000.35,0000.24,0000.11,0000.13,19.4,25.8,,00.0,0644.6,30.9
2021-11-26T10:37:00Z,00000200,01000000,-000.00,0000.25,0000.26,-000.01,-000.26,0000.03,-000.25,0000.02,-000.09,19.3,25.7,,00.0,0644.6,30.8
2021-11-26T10:38:00Z,00000200,01000000,-000.21,0000.05,0000.24,-000.00,0000.10,0000.30,0000.18,0000.45,0000.26,19.2,25.7,,00.0,0644.5,30.8
2021-11-26T10:39:00Z,00000200,01000000,0000.03,0000.13,-000.09,-000.25,-000.13,0000.33,-000.05,-000.20,-000.04,19.2,25.7,,00.0,0644.5,30.8
2021-11-26T10:40:00Z,00000200,01000000,0000.36,0000.35,-000.26,0000.08,0000.01,-000.06,-000.00,0000.25,0000.06,19.1,25.6,,00.0,0644.4,30.8
2021-11-26T10:41:00Z,00000200,01000000,-001.12,0000.38,-000.18,0000.13,0000.03,-000.16,0000.61,0000.02,-000.04,19.0,25.6,,00.0,0644.4,30.8
2021-11-26T10:42:00Z,00000200,01000000,0000.32,0000.25,0000.21,-000.03,0000.01,0000.34,0000.42,0000.40,0000.23,19.1,25.6,,00.0,0644.4,30.8
2021-11-26T10:43:00Z,00000200,01000000,0000.44,0000.56,0000.06,-000.19,0000.17,-000.01,-000.13,0000.29,0000.21,19.1,25.6,,00.0,0644.4,30.8
2021-11-26T10:44:00Z,00000200,01000000,-000.16,0000.40,0000.26,-000.22,0000.27,0000.11,0000.36,0000.19,-000.03,19.1,25.6,,00.0,0644.4,30.8
2021-11-26T10:45:00Z,00000200,01000000,-000.07,-000.05,0000.07,-000.60,-000.11,-000.02,0000.09,-000.15,0000.42,19.2,25.6,,00.0,0644.4,30.8
2021-11-26T10:46:00Z,00000200,01000000,-000.42,0000.39,0000.45,0000.21,0000.12,0000.36,0000.15,0000.21,-000.15,19.2,25.6,,00.0,0644.4,30.8
2021-11-26T10:47:00Z,00000200,01000000,0000.52,0000.15,0000.18,0000.56,0000.02,0000.41,-000.30,-000.33,0000.36,19.3,25.6,,00.0,0644.4,30.9
2021-11-26T10:48:00Z,00000200,01000000,0000.19,-000.25,-000.01,-000.25,-000.03,0000.15,0000.28,0000.46,-000.17,19.3,25.7,,00.0,0644.4,30.9
2021-11-26T10:49:00Z,00000200,01000000,-001.25,0000.53,-000.02,0000.17,-000.11,0000.31,-000.24,-000.26,0000.24,19.4,25.7,,00.0,0644.4,30.9
2021-11-26T10:50:00Z,00000200,01000000,-000.15,-000.09,-000.02,0000.62,0000.09,0000.21,0000.18,0000.12,-000.35,19.4,25.7,,00.0,0644.4,30.9
2021-11-26T10:51:00Z,00000200,01000000,-000.23,0000.35,0000.05,0000.12,0000.15,0000.19,0000.04,0000.02,0000.23,19.4,25.7,,00.0,0644.3,30.9
2021-11-26T10:52:00Z,00000200,01000000,-000.12,0000.38,-000.04,0000.52,0000.14,-000.00,0000.20,0000.43,0000.18,19.4,25.8,,00.0,0644.3,30.9
2021-11-26T10:53:00Z,00000200,01000000,0000.85,0000.46,-000.20,-000.44,0000.06,0000.08,-000.05,-000.28,-000.39,19.4,25.7,,00.0,0644.2,30.9
2021-11-26T10:54:00Z,00000200,01000000,0000.07,0000.24,0000.06,0000.48,-000.07,-000.05,-000.14,-000.09,0000.11,19.3,25.7,,00.0,0644.2,30.8
2021-11-26T10:55:00Z,00000200,01000000,0000.26,0000.18,-000.04,0000.12,-000.38,0000.34,0000.54,0000.43,0000.36,19.2,25.7,,00.0,0644.2,30.8
2021-11-26T10:56:00Z,00000200,01000000,-000.01,0000.50,0000.27,-000.30,-000.01,0000.23,-000.07,0000.13,-000.20,19.2,25.6,,00.0,0644.2,30.8
2021-11-26T10:57:00Z,00000200,41000000,,,,,,,-000.33,-000.38,0000.17,19.2,25.7,,00.0,0644.1,30.9
2021-11-26T10:58:00Z,00000200,61000000,,,,,,,0000.58,0000.31,-000.10,18.9,25.7,,00.0,0643.2,30.8
2021-11-26T10:59:00Z,00000200,21000000,,,,,,,0000.08,0000.17,0000.18,18.9,25.8,,00.0,0643.2,30.8
